Stations météo

réclame
Mon MeteoGroup
St-Girons, France (7627): Température de l'air & dewpoint: 15.06.2018 01:00:00 - 21.06.2018 01:00:00 (CEST)St-Girons, France (7627): Température de l'air 5cm: 15.06.2018 01:00:00 - 21.06.2018 01:00:00 (CEST)St-Girons, France (7627): Température de l'air -20cm & Température de l'air -100cm: 15.06.2018 01:00:00 - 21.06.2018 01:00:00 (CEST)St-Girons, France (7627): Vitesse du vent & gusts: 15.06.2018 01:00:00 - 21.06.2018 01:00:00 (CEST)St-Girons, France (7627): Direction du vent: 15.06.2018 01:00:00 - 21.06.2018 01:00:00 (CEST)St-Girons, France (7627): reduced air pressure: 15.06.2018 01:00:00 - 21.06.2018 01:00:00 (CEST)St-Girons, France (7627): visibility: 15.06.2018 01:00:00 - 21.06.2018 01:00:00 (CEST)St-Girons, France (7627): Ensoleillement: 15.06.2018 01:00:00 - 21.06.2018 01:00:00 (CEST)St-Girons, France (7627): Quantités de précipitations: 15.06.2018 01:00:00 - 21.06.2018 01:00:00 (CEST)
Date & Time tt [°C] td [°C] tt 5cm [°C] tt -20cm [°C] tt -100cm [°C] ff [km/h] ff [knt] fx [km/h] fx [knt] dd ppp [hPa] vv [km] sd [min] rr [mm]
21.06.2018 01:00:00 - - - - - - - - - - - - - -
21.06.2018 00:00:00 19,9 16,7 16,1 21,3 16,8 2 1 5 3 SSW 1018,8 20 0 0,0
20.06.2018 23:00:00 20,6 17,2 16,8 21,3 16,8 3 1 6 4 SSE 1018,8 20 0 0,0
20.06.2018 22:00:00 23,6 17,3 20,0 21,2 16,7 3 2 9 5 E 1017,5 2,2 8 0,0
20.06.2018 21:00:00 24,9 17,9 24,2 21,1 16,8 6 3 10 5 SW 1016,9 20 45 0,0
20.06.2018 20:00:00 29,3 17,2 34,1 20,9 16,7 5 3 14 8 NW 1016,1 20 60 0,0
20.06.2018 19:00:00 29,2 16,4 36,2 20,7 16,7 8 4 18 10 NNW 1015,9 20 60 0,0
20.06.2018 18:00:00 29,7 15,8 38,1 20,4 16,7 7 4 18 10 N 1016,0 20 60 0,0
20.06.2018 17:00:00 29,4 16,2 37,7 20,2 16,7 8 5 18 10 NW 1016,3 20 60 0,0
20.06.2018 16:00:00 29,1 17,9 36,8 20,0 16,7 11 6 22 12 WNW 1016,4 20 60 0,0
20.06.2018 15:00:00 28,7 18,2 37,6 19,9 16,7 9 5 24 13 NNW 1016,6 20 60 0,0
20.06.2018 14:00:00 28,1 17,3 37,3 19,8 16,7 8 5 18 10 NNW 1017,0 18 60 0,0
20.06.2018 13:00:00 27,3 18,9 36,8 19,7 16,7 7 4 16 8 NNW 1017,3 20 60 0,0
20.06.2018 12:00:00 26,8 17,0 35,4 19,7 16,7 2 1 10 6 E 1017,6 6 60 0,0
20.06.2018 11:00:00 25,2 16,3 29,8 19,8 16,7 3 2 9 5 NNE 1017,8 18 60 0,0
20.06.2018 10:00:00 23,6 15,9 22,2 19,9 16,6 4 2 11 6 ESE 1018,3 20 60 0,0
20.06.2018 09:00:00 20,9 15,4 18,7 20,0 16,6 5 3 10 5 SE 1019,0 20 60 0,0
20.06.2018 08:00:00 17,6 15,0 13,2 20,0 16,6 2 1 7 4 W 1019,6 20 60 0,0
20.06.2018 07:00:00 15,2 13,9 11,2 20,2 16,6 0 0 6 3 N 1019,9 20 8 0,0
20.06.2018 06:00:00 14,6 13,0 12,2 20,2 16,6 4 2 18 10 W 1019,8 6 0 0,0
20.06.2018 05:00:00 15,5 13,9 12,9 20,3 16,6 4 2 20 11 S 1019,5 19 0 0,2
20.06.2018 04:00:00 15,7 14,6 12,7 20,4 16,6 7 4 16 9 SSE 1019,8 20 0 0,0
20.06.2018 03:00:00 16,3 14,8 11,5 20,5 16,6 10 6 15 8 SE 1020,2 20 0 0,0
20.06.2018 02:00:00 14,7 13,4 11,7 20,5 16,6 2 1 4 2 WNW 1021,0 19 0 0,0
20.06.2018 01:00:00 15,4 13,9 12,2 20,5 16,6 2 1 8 5 SSE 1021,2 20 0 0,0
20.06.2018 00:00:00 16,5 14,7 12,8 20,5 16,6 3 2 5 3 SSE 1021,3 20 0 0,0
19.06.2018 23:00:00 18,2 15,4 14,5 20,5 16,6 0 0 5 3 N 1020,9 20 0 0,0
19.06.2018 22:00:00 19,2 15,7 18,1 20,4 16,6 5 3 7 4 WSW 1020,3 2,1 0 0,0
19.06.2018 21:00:00 21,9 16,2 21,7 20,3 16,6 0 0 5 3 N 1020,0 20 52 0,0
19.06.2018 20:00:00 24,3 13,8 25,8 20,2 16,6 3 1 5 3 SE 1019,7 20 23 0,0
19.06.2018 19:00:00 24,4 15,3 26,8 20,0 16,6 2 1 10 6 SSE 1019,9 20 0 0,0
19.06.2018 18:00:00 25,0 14,5 29,1 19,8 16,6 3 2 14 8 NE 1020,1 20 0 0,0
19.06.2018 17:00:00 25,4 14,8 30,5 19,6 16,5 2 1 16 9 ENE 1020,3 20 17 0,0
19.06.2018 16:00:00 24,8 14,3 31,0 19,4 16,5 5 3 16 9 NNE 1020,6 20 24 0,0
19.06.2018 15:00:00 24,8 14,9 30,6 19,3 16,6 4 2 19 10 NNW 1021,0 20 31 0,0
19.06.2018 14:00:00 25,1 14,5 34,6 19,1 16,6 7 4 21 11 NE 1021,4 20 60 0,0
19.06.2018 13:00:00 23,7 14,7 32,8 19,1 16,6 8 4 17 9 N 1022,0 20 56 0,0
19.06.2018 12:00:00 23,0 14,0 30,4 19,1 16,5 5 3 13 7 N 1022,5 20 60 0,0
19.06.2018 11:00:00 22,5 14,1 27,6 19,1 16,5 2 1 11 6 ENE 1023,0 20 60 0,0
19.06.2018 10:00:00 20,7 14,3 21,1 19,2 16,5 3 1 13 7 N 1023,9 20 60 0,0
19.06.2018 09:00:00 19,1 15,4 19,3 19,2 16,5 0 0 8 4 N 1024,7 20 60 0,0
19.06.2018 08:00:00 16,5 14,0 15,5 19,3 16,5 2 1 9 5 SE 1025,2 20 38 0,0
19.06.2018 07:00:00 15,0 13,2 14,4 19,3 16,5 4 2 10 5 SE 1025,8 20 20 0,0
19.06.2018 06:00:00 15,0 12,9 14,5 19,4 16,5 3 2 11 6 ESE 1025,8 20 0 0,0
19.06.2018 05:00:00 15,6 14,0 15,5 19,4 16,5 2 1 5 3 SE 1025,5 20 0 0,2
19.06.2018 04:00:00 16,3 14,8 15,7 19,4 16,5 0 0 3 2 N 1025,4 14 0 0,2
19.06.2018 03:00:00 16,5 15,0 16,0 19,5 16,5 2 1 5 3 SSE 1025,3 20 0 0,0
19.06.2018 02:00:00 16,5 14,3 15,7 19,5 16,5 2 1 6 4 W 1025,5 20 0 0,0
19.06.2018 01:00:00 17,0 14,5 16,2 19,5 16,5 0 0 3 2 N 1025,8 20 0 0,0
19.06.2018 00:00:00 17,4 14,1 15,7 19,5 16,5 3 2 5 3 ESE 1026,0 20 0 0,0
18.06.2018 23:00:00 17,8 13,9 15,9 19,5 16,5 0 0 7 4 N 1025,7 20 0 0,0
18.06.2018 22:00:00 18,0 14,7 17,1 19,3 16,5 5 3 6 3 SW 1025,3 20 0 0,0
18.06.2018 21:00:00 19,9 14,7 19,4 19,3 16,5 0 0 10 5 N 1024,6 20 9 0,0
18.06.2018 20:00:00 20,4 13,8 21,2 19,2 16,5 6 4 15 8 WNW 1024,5 20 12 0,0
18.06.2018 19:00:00 21,0 13,7 21,7 19,1 16,5 11 6 19 11 NW 1024,3 20 3 0,0
18.06.2018 18:00:00 21,3 12,7 23,6 18,9 16,5 10 5 21 12 NW 1024,4 20 17 0,0
18.06.2018 17:00:00 21,8 14,9 23,9 18,8 16,5 12 6 19 11 NW 1024,5 20 7 0,0
18.06.2018 16:00:00 21,1 14,0 25,7 18,6 16,5 8 5 20 11 NW 1024,7 20 5 0,0
18.06.2018 15:00:00 20,6 13,5 26,2 18,5 16,5 12 7 24 13 NNW 1025,1 20 34 0,0
18.06.2018 14:00:00 20,3 12,5 26,9 18,4 16,5 11 6 27 15 NNW 1025,2 20 52 0,0
18.06.2018 13:00:00 19,6 12,6 22,8 18,4 16,5 6 3 26 14 N 1025,9 20 42 0,0
18.06.2018 12:00:00 18,2 12,2 23,0 18,4 16,5 13 7 23 12 NW 1026,3 20 20 0,0
18.06.2018 11:00:00 17,1 11,4 21,1 18,5 16,5 9 5 14 8 NNW 1026,5 20 8 0,0
18.06.2018 10:00:00 16,7 11,8 19,0 18,5 16,5 4 2 15 8 WNW 1026,9 20 55 0,0
18.06.2018 09:00:00 15,3 11,5 15,2 18,6 16,5 8 5 16 9 NW 1027,0 19 37 0,0
18.06.2018 08:00:00 13,9 11,1 13,5 18,7 16,5 5 3 12 6 WNW 1027,2 20 2 0,0
18.06.2018 07:00:00 13,4 11,3 12,7 18,7 16,5 3 1 7 4 WNW 1027,1 20 0 0,0
18.06.2018 06:00:00 12,9 10,8 12,0 18,8 16,5 0 0 7 4 N 1026,9 4,1 0 0,0
18.06.2018 05:00:00 13,7 11,6 12,7 18,9 16,5 5 3 11 6 NW 1026,4 20 0 0,0
18.06.2018 04:00:00 13,3 11,4 12,6 18,9 16,5 0 0 9 5 N 1026,5 20 0 0,0
18.06.2018 03:00:00 13,2 11,3 11,6 19,0 16,5 2 1 6 3 SSE 1026,6 20 0 0,0
18.06.2018 02:00:00 12,6 11,3 10,9 19,0 16,5 0 0 6 3 N 1026,5 20 0 0,0
18.06.2018 01:00:00 12,3 11,0 8,5 19,1 16,5 0 0 5 3 N 1026,7 20 0 0,0
18.06.2018 00:00:00 12,6 10,5 9,0 19,1 16,5 0 0 8 5 N 1026,7 20 0 0,0
17.06.2018 23:00:00 14,1 11,6 10,7 19,1 16,5 0 0 4 2 N 1026,2 20 0 0,0
17.06.2018 22:00:00 16,2 12,0 13,1 19,0 16,4 3 2 10 5 WSW 1025,3 9 2 0,0
17.06.2018 21:00:00 17,5 12,0 17,0 19,0 16,5 7 4 18 10 W 1025,1 20 0 0,0
17.06.2018 20:00:00 17,8 12,7 17,9 18,9 16,5 10 5 26 14 WNW 1024,5 20 5 0,0
17.06.2018 19:00:00 18,3 12,9 18,2 18,8 16,4 15 8 23 12 NW 1024,1 20 0 0,0
17.06.2018 18:00:00 18,2 12,9 19,3 18,7 16,5 14 8 24 13 NW 1023,9 20 0 0,0
17.06.2018 17:00:00 19,0 12,3 20,1 18,6 16,5 14 8 24 13 NW 1023,8 20 0 0,0
17.06.2018 16:00:00 18,6 12,6 20,2 18,4 16,4 14 7 27 14 NNW 1023,6 20 0 0,0
17.06.2018 15:00:00 19,6 12,1 24,7 18,3 16,4 9 5 23 12 NW 1023,2 20 28 0,0
17.06.2018 14:00:00 19,6 11,1 25,2 18,3 16,4 13 7 30 16 N 1023,4 20 49 0,0
17.06.2018 13:00:00 19,3 11,6 21,8 18,3 16,5 15 8 26 14 NW 1023,3 19 44 0,0
17.06.2018 12:00:00 17,4 10,3 20,2 18,3 16,4 11 6 24 13 NNW 1023,9 20 30 0,0
17.06.2018 11:00:00 17,2 11,9 19,3 18,3 16,4 11 6 23 12 NW 1024,1 20 29 0,0
17.06.2018 10:00:00 16,0 11,4 16,9 18,4 16,5 5 3 18 10 WNW 1024,5 20 12 0,0
17.06.2018 09:00:00 14,8 10,6 14,5 18,5 16,5 8 5 16 9 WNW 1025,1 20 0 0,0
17.06.2018 08:00:00 13,8 10,8 13,4 18,5 16,4 9 5 16 9 NW 1024,5 20 0 0,0
17.06.2018 07:00:00 13,5 10,5 13,1 18,6 16,4 4 2 10 6 NNW 1023,7 20 0 0,0
17.06.2018 06:00:00 13,6 10,6 13,1 18,6 16,4 4 2 16 9 N 1023,3 7 0 0,0
17.06.2018 05:00:00 13,9 10,7 13,4 18,7 16,4 5 3 10 6 NNW 1023,1 20 0 0,0
17.06.2018 04:00:00 14,3 10,9 13,8 18,7 16,5 5 3 20 11 WNW 1023,1 20 0 0,0
17.06.2018 03:00:00 14,9 11,5 14,2 18,7 16,4 12 7 19 10 WNW 1022,8 20 0 0,0
17.06.2018 02:00:00 15,0 12,5 14,1 18,8 16,4 2 1 8 5 NNW 1022,5 20 0 0,0
17.06.2018 01:00:00 14,6 12,8 13,5 18,8 16,4 0 0 6 3 N 1023,1 20 0 0,0
17.06.2018 00:00:00 14,7 12,7 13,0 18,8 16,4 4 2 6 3 SSE 1022,9 20 0 0,0
16.06.2018 23:00:00 15,1 13,1 14,1 18,7 16,4 4 2 9 5 WNW 1022,5 20 0 0,0
16.06.2018 22:00:00 16,4 12,9 15,3 18,7 16,4 2 1 16 8 WNW 1021,4 0,7 0 0,0
16.06.2018 21:00:00 16,7 13,2 16,5 18,6 16,4 8 4 14 8 WNW 1020,9 20 0 0,0
16.06.2018 20:00:00 17,1 13,4 17,6 18,6 16,4 7 4 14 8 W 1020,3 20 0 0,0
16.06.2018 19:00:00 17,3 13,4 18,6 18,5 16,4 8 4 20 11 WNW 1019,7 20 0 0,0
16.06.2018 18:00:00 17,5 13,6 18,6 18,5 16,4 11 6 21 11 NW 1019,7 20 0 0,0
16.06.2018 17:00:00 18,1 13,4 21,7 18,4 16,4 10 5 21 11 NW 1019,5 20 9 0,0
16.06.2018 16:00:00 17,7 14,2 19,6 18,4 16,4 9 5 17 9 WNW 1019,8 20 0 0,0
16.06.2018 15:00:00 16,1 13,9 17,2 18,4 16,4 9 5 18 10 NW 1020,2 20 0 0,0
16.06.2018 14:00:00 15,2 14,1 15,0 18,4 16,4 10 5 17 9 NNW 1020,4 15 0 0,6
16.06.2018 13:00:00 14,8 13,3 14,9 18,4 16,4 13 7 22 12 NW 1020,7 9 0 0,2
16.06.2018 12:00:00 17,0 13,3 19,4 18,4 16,4 13 7 22 12 N 1019,6 19 0 0,0
16.06.2018 11:00:00 18,2 12,9 22,4 18,4 16,4 4 2 13 7 NW 1018,6 20 39 0,0
16.06.2018 10:00:00 17,6 12,9 18,8 18,4 16,4 5 3 10 5 NNW 1018,8 20 16 0,0
16.06.2018 09:00:00 15,4 12,0 15,5 18,6 16,4 0 0 6 4 N 1019,3 20 2 0,0
16.06.2018 08:00:00 13,6 11,6 13,1 18,6 16,4 3 2 9 5 SSE 1019,5 20 0 0,0
16.06.2018 07:00:00 12,9 12,0 12,8 18,7 16,4 0 0 4 2 N 1019,6 15 0 0,0
16.06.2018 06:00:00 12,7 11,8 12,4 18,8 16,4 3 1 5 3 SE 1019,5 19 0 0,0
16.06.2018 05:00:00 12,3 11,5 7,8 18,8 16,3 0 0 6 3 N 1019,4 4,6 0 0,0
16.06.2018 04:00:00 11,6 10,7 7,8 18,9 16,4 0 0 8 5 N 1019,5 2,3 0 0,0
16.06.2018 03:00:00 12,1 10,8 8,9 18,9 16,4 4 2 6 3 SSE 1020,0 5 0 0,0
16.06.2018 02:00:00 13,5 12,1 11,2 18,9 16,3 2 1 8 4 SW 1019,8 6 0 0,0
16.06.2018 01:00:00 15,2 13,4 14,5 19,0 16,4 3 2 8 4 WSW 1019,7 13 0 0,0
16.06.2018 00:00:00 15,4 13,4 14,8 19,0 16,4 3 2 5 3 SSE 1019,7 17 0 0,0
15.06.2018 23:00:00 16,0 13,3 15,2 19,0 16,4 2 1 5 3 SW 1019,8 20 0 0,0
15.06.2018 22:00:00 16,6 13,1 15,8 18,9 16,4 4 2 5 3 WNW 1019,6 0,8 0 0,0
15.06.2018 21:00:00 17,4 12,3 17,0 18,9 16,3 2 1 8 4 W 1019,1 20 0 0,0
15.06.2018 20:00:00 18,0 12,2 18,5 18,9 16,3 6 3 19 10 WNW 1018,7 20 0 0,0
15.06.2018 19:00:00 18,1 12,8 19,3 18,8 16,4 13 7 22 12 W 1018,7 20 0 0,0
15.06.2018 18:00:00 18,1 13,4 18,0 18,8 16,3 11 6 18 10 W 1018,6 20 0 0,0
15.06.2018 17:00:00 17,0 13,5 16,6 18,7 16,3 9 5 15 8 W 1018,5 20 0 0,0
15.06.2018 16:00:00 16,5 14,3 16,0 18,7 16,3 8 5 26 14 NW 1018,5 20 0 0,2
15.06.2018 15:00:00 18,7 13,5 20,4 18,6 16,3 13 7 23 13 NNW 1018,0 20 3 0,0
15.06.2018 14:00:00 18,1 13,2 20,8 18,6 16,3 11 6 20 11 NW 1018,0 20 2 0,0
15.06.2018 13:00:00 18,3 12,5 22,3 18,6 16,3 8 4 16 9 NW 1017,9 20 2 0,0
15.06.2018 12:00:00 18,2 12,6 21,2 18,6 16,3 5 3 13 7 NNW 1018,0 18 10 0,0
15.06.2018 11:00:00 17,5 13,0 17,9 18,7 16,3 6 3 16 9 WNW 1018,4 19 12 0,0
15.06.2018 10:00:00 15,9 12,6 17,8 18,8 16,3 9 5 15 8 NW 1019,1 20 0 0,0
15.06.2018 09:00:00 15,6 12,2 15,9 18,8 16,3 0 0 5 3 N 1018,8 20 0 0,0
15.06.2018 08:00:00 14,6 12,3 14,0 18,8 16,3 0 0 3 2 N 1018,9 20 0 0,0
15.06.2018 07:00:00 14,3 12,5 13,5 18,9 16,3 0 0 7 4 N 1018,4 20 0 0,0
15.06.2018 06:00:00 14,5 11,8 14,1 19,0 16,3 3 2 8 5 NNW 1018,4 2,7 0 0,0
15.06.2018 05:00:00 14,6 12,3 14,2 19,0 16,3 4 2 11 6 WNW 1018,7 20 0 0,0
15.06.2018 04:00:00 14,9 12,6 14,4 19,0 16,3 6 3 17 9 WNW 1019,1 20 0 0,0
15.06.2018 03:00:00 15,2 12,7 14,3 19,1 16,3 8 5 13 7 NW 1019,1 20 0 0,0
15.06.2018 02:00:00 15,3 12,6 13,9 19,1 16,3 3 2 21 12 W 1019,5 20 0 0,0
15.06.2018 01:00:00 14,8 12,8 13,1 19,1 16,3 0 0 5 3 N 1019,9 19 0 0,0

tt = Température de l'air
td = dewpoint
tt 5cm = Température de l'air 5cm
tt -20cm = Température de l'air -20cm
tt -100cm = Température de l'air -100cm
ff = Vitesse du vent
fx = gusts
dd = Direction du vent
ppp = reduced air pressure
vv = visibility
sd = Ensoleillement
rr = Quantités de précipitations

stations d'obs. à proximité